GFSCGP_sfc_thetae_150.txt.gz
Theta_e
291 285 282 285 287 289 288 286 284 285 289 286 287 285 289 290 294 294 293 293 294 295 297 297 297 296 295 295 295 295 295 295 294 293 292 293 293 295 297 299 300 302 304 308
287 284 289 290 290 289 288 286 284 286 289 287 284 284 288 288 293 294 292 292 293 294 294 297 296 294 293 293 294 294 293 293 293 293 293 293 293 294 296 298 300 302 304 307
285 289 293 291 290 289 287 285 284 284 285 286 283 281 286 292 294 295 294 294 294 293 292 294 295 292 291 291 292 292 292 292 293 293 293 293 294 294 295 296 298 301 303 304
287 292 291 290 289 289 284 289 288 285 282 278 283 275 282 290 291 292 291 290 291 292 293 293 292 292 291 291 291 291 292 292 293 292 292 291 291 291 294 295 298 300 302 303
287 288 288 288 289 290 286 290 287 285 281 278 280 276 279 290 287 288 289 291 290 291 292 292 291 291 290 289 289 290 291 292 292 292 292 292 291 293 294 296 296 299 301 303
289 294 291 290 291 291 290 286 285 282 280 274 280 279 278 281 288 289 290 291 291 291 291 292 292 291 289 288 288 289 290 290 292 291 292 292 292 292 293 294 296 298 301 304
289 289 292 293 286 288 286 282 275 274 274 274 283 280 281 288 290 290 290 289 290 290 290 289 289 288 288 287 287 288 289 289 291 291 292 292 293 293 293 294 296 297 300 303
283 280 289 291 288 285 284 283 276 273 273 277 285 278 282 290 292 292 292 290 291 290 290 289 288 287 286 287 287 287 287 289 291 291 291 292 293 293 294 294 296 297 300 304
282 284 291 291 291 290 284 280 286 280 281 276 279 283 288 289 289 290 289 290 288 289 288 288 288 287 286 286 286 286 287 288 291 290 291 291 293 293 293 294 296 298 301 304
288 282 289 289 290 289 287 289 281 280 275 273 277 281 280 285 286 288 287 287 288 289 288 288 288 287 286 286 286 287 287 288 289 290 290 292 292 293 293 294 294 296 299 302
290 286 284 287 283 283 283 283 285 284 280 275 276 279 287 287 288 287 287 288 288 288 288 288 287 287 286 286 285 286 286 287 288 289 289 290 292 292 293 292 293 295 298 301
290 286 281 282 288 289 286 285 286 278 279 282 280 278 289 288 288 288 288 290 289 289 288 288 287 286 285 285 285 285 286 286 287 288 289 290 291 291 291 291 292 294 296 298
290 284 278 281 285 286 283 285 287 287 285 280 278 279 290 290 289 289 288 288 289 288 287 287 284 281 282 284 284 285 285 286 287 287 289 289 289 289 289 290 291 293 294 295
294 285 282 279 282 285 281 284 286 285 280 280 281 283 286 287 287 288 287 288 287 287 287 286 282 279 279 282 283 284 285 286 286 287 288 287 287 287 288 289 290 291 293 293
288 283 284 286 287 287 286 285 285 283 284 281 283 285 286 287 287 287 288 289 288 287 287 285 282 278 277 279 281 284 285 285 286 286 287 287 287 287 288 287 288 289 291 291
290 283 284 283 287 287 284 286 286 285 285 286 287 285 290 289 289 287 287 287 287 286 286 285 285 284 280 281 283 283 284 284 285 286 286 287 287 286 286 286 286 287 288 289
284 284 283 280 286 284 279 283 284 285 287 286 282 286 288 287 287 286 286 286 286 285 285 284 284 283 282 282 283 282 283 284 284 285 285 287 286 284 284 285 284 284 286 287
282 282 282 278 281 274 284 289 289 286 287 289 288 287 288 288 288 287 286 285 285 285 284 283 283 282 281 281 282 283 283 283 283 284 285 286 286 284 283 283 282 283 284 285
288 284 280 276 277 280 282 286 285 284 283 289 288 287 288 287 286 282 286 287 284 283 283 282 282 282 281 281 282 282 281 281 282 283 284 285 285 283 282 281 281 282 282 283
288 287 282 279 275 270 280 287 291 291 280 289 289 287 286 286 279 280 285 285 283 283 282 281 282 281 280 281 281 280 279 280 281 283 283 284 285 283 281 281 280 281 282 282
281 282 278 278 275 278 286 289 291 279 279 288 288 288 286 280 281 285 285 284 283 282 282 282 281 279 279 281 281 279 278 279 282 283 283 283 284 284 282 281 280 281 281 282
279 278 276 278 277 274 289 288 283 285 289 288 288 286 285 285 286 284 283 282 281 280 280 280 278 278 278 279 280 277 278 280 282 283 282 282 282 283 282 280 280 281 281 280
276 280 278 281 278 287 290 289 290 291 288 288 287 287 286 284 283 283 281 280 279 279 278 278 277 276 277 278 279 277 278 281 282 282 281 282 282 282 283 280 279 280 280 280
282 288 282 283 287 287 290 291 292 291 289 289 288 286 286 283 282 280 279 278 277 277 276 277 275 275 275 277 278 278 279 281 281 280 280 281 281 281 282 280 280 280 278 279
285 287 284 285 287 289 289 290 290 290 289 288 288 286 284 282 280 279 277 277 276 275 275 276 274 275 275 276 277 277 279 281 281 280 280 281 282 281 281 281 280 279 279 280
285 282 281 282 287 287 287 289 289 286 285 285 283 282 282 282 279 278 276 275 274 274 275 275 274 275 275 275 276 277 279 280 281 279 280 280 280 280 280 279 278 280 280 281

GFSCGP_sfc_thetae_153.txt.gz
Theta_e
290 285 282 284 286 287 286 284 282 284 288 285 285 284 285 290 294 292 292 292 292 293 294 294 294 293 292 293 292 292 292 292 293 292 291 291 291 293 294 296 297 299 300 302
286 283 289 288 288 287 286 284 283 285 287 286 282 285 285 289 292 292 291 291 291 291 292 294 293 291 291 290 290 291 291 291 292 292 291 291 292 293 294 296 297 298 300 301
284 288 291 289 287 286 285 283 283 283 283 283 281 281 284 290 292 293 292 292 292 291 290 291 292 290 289 289 288 290 290 291 292 292 292 292 292 293 293 294 295 297 299 301
286 290 289 288 287 287 283 288 287 284 281 278 282 275 281 288 288 290 290 289 290 290 291 290 290 289 288 287 287 288 290 290 292 292 290 290 290 290 292 293 295 297 298 300
285 287 286 285 287 289 286 289 286 284 279 277 278 276 278 288 285 287 288 289 289 289 289 289 288 288 288 287 287 287 288 290 291 291 291 291 291 292 293 294 294 296 298 300
289 291 290 289 289 290 289 285 284 281 279 275 279 280 277 283 286 288 289 289 290 289 289 290 289 288 286 286 285 285 286 288 290 290 291 290 290 291 291 292 293 295 296 298
287 288 290 291 285 287 285 283 277 275 274 275 281 279 284 286 289 290 289 288 288 289 288 287 287 286 286 285 285 286 286 287 289 290 290 290 290 291 292 292 293 293 293 296
283 281 288 291 289 284 283 283 278 274 274 276 282 276 280 288 290 291 291 289 289 288 288 287 287 285 285 285 285 285 286 286 288 289 289 290 290 291 292 293 293 293 294 295
282 283 291 291 290 290 283 280 286 280 280 276 278 282 286 288 288 289 288 288 287 287 287 287 287 286 285 284 285 284 285 286 287 288 288 289 290 291 291 292 293 293 294 295
288 281 288 289 290 289 286 288 279 280 275 273 276 278 279 284 285 287 286 287 288 288 287 287 286 286 285 285 285 285 285 285 286 288 288 289 290 291 291 291 292 292 293 294
292 287 284 286 283 282 283 282 284 284 281 276 273 276 287 286 288 286 286 287 287 286 287 286 285 285 285 285 284 284 284 285 286 286 287 289 290 290 289 290 291 291 292 293
291 287 282 282 288 289 286 285 285 277 278 281 280 279 288 289 288 287 288 289 288 288 287 286 285 283 284 283 283 283 284 285 286 286 287 289 289 289 288 288 290 291 291 292
291 285 280 281 285 286 283 284 286 287 284 280 278 279 289 289 288 289 287 288 288 288 287 285 284 280 281 282 282 283 283 284 285 285 287 288 288 287 286 287 288 289 290 291
292 284 282 279 281 283 281 284 286 284 279 279 281 283 284 287 287 288 287 287 287 286 286 285 281 277 278 280 281 282 283 284 284 284 285 286 287 286 286 286 287 287 288 289
289 282 282 284 287 287 285 285 285 282 284 280 283 283 286 287 288 288 288 288 287 286 285 284 281 275 274 277 279 282 283 283 284 283 284 285 287 286 285 285 286 286 287 287
291 282 285 283 286 287 285 286 286 286 286 285 285 284 289 291 290 287 288 288 286 285 284 284 283 281 279 279 281 282 282 282 283 282 284 285 286 285 284 283 284 284 284 285
286 284 283 280 285 284 280 283 285 286 288 286 281 285 289 287 288 287 287 286 285 285 284 283 282 280 280 280 281 280 281 282 281 282 284 284 285 285 283 282 282 282 282 284
285 283 283 280 281 275 283 289 289 287 288 289 288 288 289 289 288 287 287 286 285 284 282 282 280 279 279 279 280 280 281 280 281 282 282 283 284 284 282 281 280 281 282 283
289 285 280 277 278 280 283 285 286 285 284 290 287 288 288 286 285 282 286 285 283 282 281 280 280 279 279 279 279 279 279 280 281 281 281 282 283 283 282 280 279 280 281 282
288 287 283 279 275 270 279 285 289 289 279 288 289 287 284 285 279 280 283 283 282 281 281 280 280 279 278 278 279 278 277 279 279 281 282 282 283 283 281 280 280 281 281 282
281 282 280 278 276 278 285 287 290 279 278 288 289 287 285 280 282 283 282 281 281 280 280 280 279 277 277 278 279 277 277 278 280 282 282 282 283 282 282 280 280 280 280 282
279 278 278 280 277 274 287 286 282 285 287 288 288 287 284 283 282 281 280 279 279 278 278 278 276 276 276 277 278 276 276 279 281 281 281 281 282 282 282 280 280 280 279 280
277 280 279 281 278 286 288 287 289 290 288 287 286 286 284 281 280 280 278 278 277 277 276 276 275 275 276 276 277 275 277 279 281 281 280 280 282 281 282 280 280 278 278 278
281 285 279 281 284 286 288 290 290 290 287 288 287 285 283 279 279 278 277 276 275 275 275 275 274 274 275 276 277 277 278 280 279 279 279 280 280 280 280 280 279 278 277 277
281 284 283 284 285 286 288 288 288 288 288 287 286 284 281 279 278 277 275 274 274 275 274 274 274 274 274 275 276 276 279 280 279 279 279 279 279 279 279 280 277 277 277 278
283 281 282 279 286 285 285 288 288 286 285 284 283 281 281 280 276 275 273 274 274 274 274 273 273 273 273 274 275 276 277 279 278 278 278 278 278 279 278 278 277 279 278 279

GFSCGP_sfc_thetae_159.txt.gz
Theta_e
293 289 286 290 290 289 289 287 286 288 291 290 291 290 291 297 297 296 296 296 296 296 297 297 296 295 295 295 295 295 295 296 297 297 296 298 297 299 300 301 302 302 303 303
290 287 292 291 289 288 288 286 286 289 290 289 290 289 289 295 297 297 297 296 296 295 295 295 295 294 294 293 293 294 294 295 296 296 296 296 296 298 299 300 301 302 302 302
289 291 291 290 287 286 287 286 286 287 288 288 287 287 288 293 296 296 297 297 296 296 295 294 293 293 293 292 292 292 293 294 295 296 296 296 297 298 298 298 300 300 301 301
290 293 290 289 288 289 285 289 289 288 286 284 287 283 286 290 292 294 296 295 295 295 294 293 292 292 292 292 292 292 293 293 294 295 295 294 293 292 295 296 298 298 300 300
290 288 288 288 288 290 288 290 289 288 285 284 285 284 288 289 288 292 294 295 295 294 294 293 291 291 291 292 292 292 293 293 293 294 294 293 293 294 295 296 296 298 298 298
291 293 291 291 290 291 291 288 286 284 284 279 284 285 288 288 290 292 294 294 293 293 293 292 291 291 291 292 292 292 292 292 293 293 293 293 292 293 294 294 294 294 295 296
294 292 292 292 289 289 289 286 281 278 278 279 284 283 289 289 292 294 293 293 293 292 292 291 290 290 290 290 291 291 291 290 292 292 292 292 292 294 293 293 293 292 292 293
287 286 291 293 292 291 287 288 283 277 277 280 282 281 286 290 292 294 295 294 292 292 291 291 290 290 289 289 290 290 290 290 291 291 291 292 293 293 293 293 293 291 291 292
285 285 292 291 293 293 287 284 290 285 282 280 283 285 287 289 289 291 291 291 291 291 291 291 290 289 289 289 289 289 289 289 290 290 291 291 292 293 293 293 293 292 293 292
292 285 291 290 292 291 290 291 283 283 276 276 282 282 285 286 288 289 289 290 290 291 291 290 290 289 289 289 289 290 289 289 289 290 290 290 291 292 292 292 291 291 291 291
292 288 288 288 286 286 286 286 286 286 284 280 279 283 288 289 290 289 290 290 290 291 290 289 289 289 288 289 288 288 288 288 288 289 289 289 290 290 290 290 290 290 290 290
292 288 284 287 291 290 288 286 287 282 281 283 283 283 292 292 292 292 291 291 292 292 291 289 289 287 287 287 287 287 287 287 287 288 288 288 289 289 288 289 289 290 289 290
291 286 281 284 288 290 288 290 289 287 285 281 280 283 290 291 291 292 291 292 291 291 289 288 286 285 285 285 285 286 286 286 286 287 287 287 287 287 287 288 289 288 288 288
293 286 284 280 283 285 284 286 288 288 283 283 283 285 287 288 289 290 291 292 291 290 288 287 285 284 283 284 284 284 285 285 285 285 286 286 285 286 287 287 288 287 287 286
290 281 283 285 287 287 286 286 287 285 285 282 285 286 290 290 291 292 293 291 289 288 287 286 284 283 282 283 283 284 284 284 285 284 285 285 285 286 287 286 287 286 285 285
290 283 285 283 287 287 285 287 287 287 286 287 287 286 293 293 293 292 291 290 289 288 286 285 284 283 283 282 282 282 283 283 284 284 284 284 285 284 284 285 286 285 284 284
286 284 282 278 285 285 280 285 287 287 288 288 284 290 295 294 291 292 291 290 288 287 286 285 283 282 282 282 282 282 282 283 284 283 283 283 284 283 283 284 284 282 283 283
285 284 283 278 281 272 285 290 290 288 290 292 291 292 292 293 291 292 293 290 287 286 284 283 282 281 281 281 282 282 282 283 282 282 283 283 283 282 283 283 282 282 282 282
288 284 280 277 277 281 284 288 287 287 287 292 291 293 289 288 288 284 289 289 286 284 283 281 281 280 280 280 281 281 281 282 281 281 282 282 282 282 282 282 281 282 282 281
287 288 282 279 275 272 284 288 290 292 282 290 291 290 287 288 285 284 284 284 283 283 282 281 280 279 279 280 280 280 280 280 280 281 282 282 282 281 281 282 281 280 281 280
281 281 278 279 276 280 289 289 290 280 284 290 290 289 288 287 288 284 283 282 282 281 280 280 279 278 278 279 280 279 280 279 281 282 283 282 281 281 282 282 281 280 280 280
280 279 278 280 277 275 289 289 284 288 288 289 289 288 284 282 282 282 281 280 280 278 278 278 278 278 278 279 279 278 278 280 281 282 282 281 281 281 281 280 280 279 279 278
279 284 282 283 283 288 290 289 290 291 289 287 286 285 284 282 281 280 279 279 278 277 277 278 277 278 278 279 279 277 279 279 280 281 280 280 280 281 281 279 279 278 278 277
285 287 284 284 287 287 288 288 289 290 288 287 286 284 284 281 280 279 278 277 276 276 276 277 277 277 277 278 278 278 279 280 280 279 279 279 279 279 279 280 279 277 277 276
287 287 285 285 286 286 287 287 287 286 286 285 285 284 282 280 278 277 276 276 276 276 276 276 276 276 276 278 278 279 279 280 278 278 278 278 277 277 278 278 278 277 277 276
287 285 284 284 289 288 286 286 287 285 284 284 282 281 281 280 277 277 276 276 275 275 275 275 275 275 275 276 277 277 279 279 277 277 277 276 276 276 276 276 276 277 276 276

GFSCGP_sfc_thetae_162.txt.gz
Theta_e
300 298 294 297 298 299 295 294 294 298 297 295 297 298 300 301 302 303 304 305 305 304 304 303 302 302 302 302 302 302 303 304 305 305 304 305 304 306 307 308 309 309 310 310
296 295 301 300 298 295 294 293 295 298 299 295 296 297 300 300 301 303 303 304 304 304 301 302 302 302 299 301 301 301 301 302 303 303 303 304 304 305 306 307 308 309 308 309
298 299 297 298 295 293 295 292 292 291 295 296 295 294 298 297 300 302 303 305 305 304 302 301 301 300 300 300 300 300 300 301 302 302 303 303 305 305 305 304 305 306 307 307
298 301 297 295 295 296 294 298 295 292 291 290 293 288 296 297 296 299 301 303 304 304 304 302 300 300 299 299 299 299 300 300 300 301 301 301 301 300 302 303 304 305 306 305
294 294 295 294 296 298 295 296 295 294 293 293 293 288 295 297 294 297 300 302 303 304 303 301 299 299 299 299 300 300 299 299 300 300 301 300 300 301 302 303 303 303 304 304
296 299 296 296 295 296 295 293 293 292 293 286 292 291 292 296 296 298 300 302 303 303 302 300 299 299 299 299 299 300 298 298 299 299 300 299 299 300 300 301 300 301 301 302
294 294 297 297 294 293 292 291 286 284 284 284 291 289 292 295 296 297 299 301 302 302 300 299 298 298 297 297 297 298 297 297 298 298 299 299 299 300 299 300 299 299 299 299
289 288 296 300 295 293 292 292 286 280 283 287 289 286 294 296 297 298 299 301 301 300 300 299 297 297 296 296 296 296 296 296 297 298 298 299 299 299 299 299 299 298 298 299
290 289 296 296 298 297 294 289 295 289 290 285 289 293 294 295 296 297 298 300 299 298 298 297 296 296 295 296 294 296 296 296 296 297 297 297 298 297 297 298 299 298 298 297
294 287 294 296 295 295 294 295 286 287 279 279 287 289 291 293 294 295 296 297 298 298 298 297 296 296 295 296 295 296 296 295 295 296 296 296 297 297 296 295 296 296 297 297
294 291 289 292 291 291 289 288 289 289 287 283 282 287 295 295 296 296 297 298 298 298 297 297 296 296 295 295 295 294 294 294 294 295 295 295 295 295 294 293 294 295 296 295
293 291 285 288 295 296 293 291 292 285 284 287 286 287 297 297 298 299 299 298 299 299 298 297 295 294 293 293 293 293 293 293 293 293 293 294 293 292 293 292 292 294 294 294
292 288 282 284 290 295 290 292 292 290 288 284 283 286 298 296 296 298 299 298 298 298 297 295 292 290 290 291 291 291 292 291 292 292 292 292 291 290 291 291 290 292 292 292
292 289 284 280 284 289 286 289 290 289 285 286 286 289 293 296 295 297 298 299 298 297 295 294 288 285 287 288 289 290 290 291 290 291 291 290 289 289 289 289 289 291 291 289
289 283 286 287 288 287 286 286 287 286 288 284 287 288 292 295 297 298 299 299 297 295 294 292 288 285 286 286 287 288 289 289 290 289 289 289 289 289 289 288 288 290 289 289
291 284 286 283 286 286 284 286 287 288 288 288 289 289 296 298 298 298 298 298 296 295 293 291 289 287 286 286 286 287 287 288 289 288 287 288 288 288 286 287 288 288 288 289
287 285 283 280 285 285 281 286 288 288 290 289 286 292 297 296 296 298 298 298 296 295 292 289 288 287 286 286 286 286 287 288 287 287 287 287 286 285 285 287 287 286 286 287
286 285 284 280 282 274 285 291 292 289 292 294 294 295 297 297 297 298 301 299 296 293 290 288 287 285 284 285 285 285 286 285 285 285 286 285 284 284 285 286 286 285 284 284
290 286 281 278 278 282 285 288 288 289 289 294 295 296 298 296 295 293 297 298 295 291 290 287 286 284 285 284 285 285 285 286 285 285 285 284 284 283 284 284 285 284 284 284
288 289 284 281 276 274 284 291 295 294 285 296 296 295 296 294 291 291 292 292 291 290 288 286 284 285 284 284 285 285 284 284 284 284 284 284 283 283 283 283 284 284 285 283
283 283 279 280 278 282 289 291 293 282 286 295 295 295 296 293 294 291 291 289 288 287 285 285 285 284 284 285 285 284 284 283 284 285 285 284 284 284 283 282 283 283 283 283
281 280 280 281 278 276 292 291 286 291 295 295 295 296 294 291 289 289 287 286 285 284 284 284 284 283 284 285 284 284 282 284 284 285 284 284 283 283 282 282 282 282 281 280
281 285 283 284 283 292 295 294 296 296 295 294 293 293 291 288 287 286 284 284 284 283 283 284 284 283 283 284 283 282 282 283 284 284 283 283 282 282 282 281 280 279 279 278
288 291 287 286 290 292 294 294 294 294 293 294 293 292 291 288 287 285 284 283 283 283 282 283 283 282 281 282 282 282 283 283 283 282 282 282 282 281 281 281 279 278 277 276
289 290 288 287 291 292 293 293 292 292 293 292 292 291 289 287 285 284 282 282 282 281 281 282 281 281 281 282 282 282 282 282 281 281 281 280 281 280 280 280 279 278 277 276
291 289 287 286 292 293 294 291 292 291 290 290 289 287 287 286 284 284 281 281 281 280 281 280 281 281 280 281 280 281 282 281 280 279 279 279 280 279 279 279 279 278 277 276